Voltar ao catálogo

STARLINK-35949

AtivoComunicaçõesVLEO
NORAD 66630·PAYLOAD·🇺🇸 United States

Lançado Nov 23, 2025 de Vandenberg Space Force Base

Loading…

Próximas Passagens (próximas 24 horas)

TLE

AtualizadoSource: CelesTrak SupGP

Época: Sep 14, 2026, 21:06 UTC

1 66630C 25271P   26257.87965278 -.00014232  00000+0 -42056-3 0  2572
2 66630  53.1597 336.1154 0001281  75.5814 285.8063 15.34392369    16

Acompanhe STARLINK-35949 em tempo real com AllMySat

Download on the App Store